Meadville, PA

8:07 PM EST on December 13, 2017 (GMT -0500)
Port Meadville

Weather History for KGKJ - March, 2014

Change the Weather History Date:

Wednesday, March 12, 2014

  Actual Average Record
Temperature  
Mean Temperature 24 °F -  
Max Temperature 41 °F 42 °F 72 °F (1977)
Min Temperature 10 °F 22 °F -5 °F (1984)
Degree Days  
Heating Degree Days 40    
Moisture  
Dew Point 20 °F    
Average Humidity 84    
Maximum Humidity 93    
Minimum Humidity 73    
Precipitation  
Precipitation 0.43 in - - ()
Sea Level Pressure  
Sea Level Pressure 29.51 in    
Wind  
Wind Speed 13 mph (North)    
Max Wind Speed 30 mph    
Max Gust Speed 48 mph    
Visibility 3 miles    
Events Fog , Rain , Snow    
Averages and records for this station are not official NWS values.
T = Trace of Precipitation, MM = Missing Value Source: NWS Daily Summary

Daily Weather History Graph

Daily Weather History Graph

Search for Another Location

Airport or City:

Trip Planner

Search our weather history database for the weather conditions in past years. The results will help you decide how hot, cold, wet, or windy it might be!

Date:

Astronomy

Mar. 12, 2014 Rise Set
Actual Time 7:37 AM EDT 7:24 PM EDT
Civil Twilight 7:10 AM EDT 7:51 PM EDT
Nautical Twilight 6:37 AM EDT 8:23 PM EDT
Astronomical Twilight 6:05 AM EDT 8:56 PM EDT
Moon 3:51 PM EDT (3/12) 5:10 AM EDT (3/12)
Length of Visible Light 12h 41m
Length of Day
11h 46m
Waxing Gibbous, 85% of the Moon is Illuminated
Mar 12
Waxing Gibbous
Mar 16
Full
Mar 23
Last Quarter
Mar 30
New
Apr 7
First Quarter

Hourly Weather History & Observations

Time (EDT) Temp. Windchill Dew Point Humidity Pressure Visibility Wind Dir Wind Speed Gust Speed Precip Events Conditions
12:53 AM 39.9 °F 35.1 °F 34.0 °F 79% 29.67 in 10.0 mi NE 6.9 mph - N/A   Overcast
1:53 AM 39.9 °F 34.5 °F 36.0 °F 86% 29.65 in 10.0 mi NE 8.1 mph - 0.00 in Rain Light Rain
2:49 AM 39.2 °F 35.0 °F 35.6 °F 87% 29.60 in 10.0 mi NE 5.8 mph - 0.00 in   Overcast
2:53 AM 39.0 °F 34.0 °F 36.0 °F 89% 29.61 in 10.0 mi NE 6.9 mph - 0.00 in   Overcast
3:53 AM 37.9 °F 32.7 °F 35.1 °F 89% 29.55 in 7.0 mi NE 6.9 mph - N/A   Mostly Cloudy
4:00 AM 37.4 °F 31.4 °F 35.6 °F 93% 29.53 in 7.0 mi NE 8.1 mph - N/A   Overcast
4:53 AM 37.9 °F 32.7 °F 35.1 °F 89% 29.50 in 9.0 mi NE 6.9 mph - N/A   Overcast
5:53 AM 37.9 °F 33.5 °F 35.1 °F 89% 29.49 in 10.0 mi NE 5.8 mph - N/A   Overcast
6:53 AM 37.9 °F 32.1 °F 35.1 °F 89% 29.45 in 6.0 mi ENE 8.1 mph - 0.01 in Rain Light Rain
7:53 AM 37.0 °F 28.1 °F 35.1 °F 93% 29.41 in 4.0 mi ENE 15.0 mph - 0.05 in Rain Light Rain
8:53 AM 37.0 °F 29.8 °F 35.1 °F 93% 29.39 in 4.0 mi NE 10.4 mph - 0.16 in Rain Rain
9:53 AM 36.0 °F 27.5 °F 34.0 °F 93% 29.30 in 8.0 mi NNE 12.7 mph 20.7 mph 0.10 in Rain Light Rain
10:53 AM 36.0 °F 27.5 °F 34.0 °F 93% 29.26 in 8.0 mi NE 12.7 mph - 0.00 in   Overcast
11:29 AM 35.6 °F 27.5 °F 33.8 °F 93% 29.21 in 2.5 mi North 11.5 mph 18.4 mph 0.00 in   Overcast
11:53 AM 34.0 °F 25.0 °F 32.0 °F 92% 29.27 in 2.5 mi North 12.7 mph 19.6 mph 0.02 in Rain Light Rain
12:17 PM 30.2 °F 19.8 °F 28.4 °F 93% 29.24 in 2.0 mi North 13.8 mph 26.5 mph 0.05 in Snow Light Snow
12:24 PM 30.2 °F 18.9 °F 28.4 °F 93% 29.24 in 1.2 mi North 16.1 mph 29.9 mph 0.06 in Snow Light Snow
12:53 PM 28.9 °F 16.5 °F 27.0 °F 92% 29.24 in 0.8 mi North 18.4 mph 29.9 mph 0.08 in Snow Light Snow
1:04 PM 28.4 °F 15.1 °F 24.8 °F 86% 29.21 in 2.0 mi NNE 20.7 mph 35.7 mph 0.00 in Snow Light Snow
1:13 PM 28.4 °F 14.1 °F 24.8 °F 86% 29.21 in 3.0 mi NNE 24.2 mph 41.4 mph 0.00 in   Overcast
1:30 PM 26.6 °F 11.4 °F 24.8 °F 93% 29.21 in 5.0 mi NNE 25.3 mph 35.7 mph 0.00 in   Overcast
1:53 PM 28.0 °F 14.9 °F 23.0 °F 81% 29.25 in 2.5 mi NNE 19.6 mph 32.2 mph 0.00 in   Haze
1:59 PM 26.6 °F 12.7 °F 23.0 °F 86% 29.22 in 1.5 mi NNE 20.7 mph 32.2 mph 0.00 in Rain Light Freezing Rain
2:40 PM 26.6 °F 11.7 °F 21.2 °F 80% 29.22 in 2.0 mi NNE 24.2 mph 35.7 mph 0.00 in   Overcast
2:53 PM 26.1 °F 12.0 °F 21.9 °F 84% 29.25 in 2.0 mi NNE 20.7 mph 34.5 mph 0.00 in   Overcast
3:04 PM 26.6 °F 13.4 °F 21.2 °F 80% 29.23 in 1.2 mi North 18.4 mph 35.7 mph 0.00 in Snow Light Snow
3:15 PM 26.6 °F 13.1 °F 21.2 °F 80% 29.25 in 0.5 mi North 19.6 mph 34.5 mph 0.00 in Fog , Snow Light Snow
3:24 PM 24.8 °F 11.1 °F 21.2 °F 86% 29.27 in 0.2 mi North 18.4 mph 31.1 mph 0.00 in Fog , Snow Light Snow
3:31 PM 24.8 °F 11.1 °F 21.2 °F 86% 29.29 in 0.2 mi North 18.4 mph 32.2 mph 0.00 in Fog , Snow Light Snow
3:53 PM 23.0 °F 5.4 °F 19.0 °F 85% 29.36 in 0.2 mi North 29.9 mph 48.3 mph 0.01 in Fog , Snow Snow
4:03 PM 23.0 °F 8.0 °F 19.4 °F 86% 29.34 in 0.2 mi North 20.7 mph 39.1 mph 0.00 in Fog , Snow Snow
4:10 PM 23.0 °F 6.6 °F 19.4 °F 86% 29.34 in 0.2 mi North 25.3 mph 40.3 mph 0.00 in Fog Light Freezing Fog
4:53 PM 21.9 °F 8.7 °F 18.0 °F 85% 29.45 in 0.2 mi North 15.0 mph 38.0 mph 0.00 in Fog Light Freezing Fog
5:35 PM 21.2 °F 6.4 °F 17.6 °F 86% 29.47 in 0.2 mi North 18.4 mph 32.2 mph N/A Fog Light Freezing Fog
5:51 PM 21.2 °F 8.3 °F 17.6 °F 86% 29.49 in 0.8 mi North 13.8 mph 25.3 mph N/A   Mist
5:53 PM 21.0 °F 6.6 °F 17.1 °F 85% 29.53 in 0.8 mi North 17.3 mph 25.3 mph N/A   Mist
5:56 PM 21.2 °F 6.4 °F 15.8 °F 80% 29.50 in 1.0 mi North 18.4 mph 27.6 mph N/A   Haze
6:11 PM 21.2 °F 7.3 °F 17.6 °F 86% 29.52 in 0.5 mi NNW 16.1 mph 25.3 mph N/A Fog Light Freezing Fog
6:53 PM 19.9 °F 6.7 °F 16.0 °F 85% 29.62 in 0.5 mi NNW 13.8 mph 28.8 mph N/A Fog Light Freezing Fog
7:18 PM 19.4 °F 6.0 °F 15.8 °F 86% 29.61 in 0.2 mi NNW 13.8 mph 21.9 mph N/A Fog Light Freezing Fog
7:21 PM 19.4 °F 5.5 °F 14.0 °F 80% 29.61 in 0.5 mi North 15.0 mph 23.0 mph N/A   Haze
7:33 PM 19.4 °F 5.5 °F 14.0 °F 80% 29.62 in 1.5 mi North 15.0 mph 25.3 mph N/A   Haze
7:49 PM 19.4 °F 6.0 °F 12.2 °F 74% 29.64 in 2.0 mi North 13.8 mph 26.5 mph N/A   Haze
7:53 PM 19.0 °F 5.6 °F 12.9 °F 77% 29.68 in 2.5 mi North 13.8 mph 23.0 mph N/A   Haze
8:04 PM 17.6 °F 3.7 °F 14.0 °F 86% 29.65 in 0.8 mi North 13.8 mph 20.7 mph N/A   Overcast
8:26 PM 17.6 °F 4.3 °F 14.0 °F 86% 29.66 in 0.8 mi NNW 12.7 mph 20.7 mph N/A   Overcast
8:33 PM 17.6 °F 3.7 °F 12.2 °F 79% 29.67 in 1.2 mi NNW 13.8 mph 21.9 mph N/A   Haze
8:40 PM 17.6 °F 5.7 °F 12.2 °F 79% 29.67 in 1.5 mi NW 10.4 mph 20.7 mph N/A   Haze
8:50 PM 17.6 °F 5.0 °F 12.2 °F 79% 29.68 in 1.8 mi NNW 11.5 mph 18.4 mph N/A   Haze
8:53 PM 16.0 °F 2.3 °F 10.9 °F 81% 29.73 in 2.0 mi NNW 12.7 mph 18.4 mph N/A   Haze
9:00 PM 15.8 °F 1.4 °F 10.4 °F 79% 29.69 in 2.0 mi NNW 13.8 mph 20.7 mph N/A   Haze
9:08 PM 15.8 °F 2.1 °F 10.4 °F 79% 29.69 in 1.5 mi NNW 12.7 mph 25.3 mph N/A   Haze
9:29 PM 15.8 °F 0.9 °F 8.6 °F 73% 29.70 in 2.5 mi NNW 15.0 mph 25.3 mph N/A   Haze
9:41 PM 15.8 °F 5.1 °F 10.4 °F 79% 29.71 in 1.0 mi NW 8.1 mph 18.4 mph N/A   Haze
9:45 PM 14.0 °F 1.2 °F 10.4 °F 86% 29.71 in 0.8 mi NW 10.4 mph 18.4 mph N/A   Overcast
9:51 PM 14.0 °F -2.5 °F 8.6 °F 79% 29.72 in 1.0 mi NW 17.3 mph 24.2 mph N/A   Haze
9:53 PM 14.0 °F -0.2 °F 8.1 °F 77% 29.77 in 1.0 mi NNW 12.7 mph 24.2 mph N/A   Haze
10:07 PM 12.2 °F -4.3 °F 6.8 °F 79% 29.72 in 1.5 mi NNW 16.1 mph 21.9 mph N/A   Haze
10:15 PM 12.2 °F -2.5 °F 6.8 °F 79% 29.73 in 3.0 mi NW 12.7 mph 21.9 mph N/A   Haze
10:27 PM 12.2 °F -0.2 °F 6.8 °F 79% 29.74 in 2.0 mi NNW 9.2 mph 21.9 mph N/A   Haze
10:53 PM 10.9 °F -4.1 °F 5.0 °F 77% 29.80 in 2.5 mi NNW 12.7 mph 20.7 mph N/A   Haze
11:00 PM 10.4 °F -4.1 °F 6.8 °F 85% 29.75 in 1.2 mi NNW 11.5 mph 20.7 mph N/A   Haze
11:09 PM 10.4 °F -1.5 °F 6.8 °F 85% 29.75 in 0.5 mi North 8.1 mph - N/A   Haze
11:27 PM 10.4 °F -2.4 °F 5.0 °F 79% 29.75 in 1.0 mi NNW 9.2 mph - N/A   Haze
11:34 PM 10.4 °F -1.5 °F 5.0 °F 79% 29.76 in 0.5 mi NNW 8.1 mph - N/A   Haze
11:53 PM 10.0 °F -3.7 °F 3.9 °F 76% 29.83 in 1.8 mi NW 10.4 mph 18.4 mph N/A   Haze